Weather History for KFOZ - January, 2014

Change the Weather History Date:

Friday, January 3, 2014

  Actual Average (KORB) Record (KORB)
Temperature  
Mean Temperature 0 °F -  
Max Temperature 15 °F 14 °F - (-1)
Min Temperature -14 °F 0 °F - (-1)
Degree Days  
Heating Degree Days 64    
Moisture  
Dew Point -1 °F    
Average Humidity 77    
Maximum Humidity 93    
Minimum Humidity 65    
Precipitation  
Precipitation 0.13 in - - ()
Sea Level Pressure  
Sea Level Pressure 29.60 in    
Wind  
Wind Speed 11 mph (South)    
Max Wind Speed 21 mph    
Max Gust Speed 31 mph    
Visibility 4 miles    
Events Snow    
Averages and records for this station are not official NWS values.
T = Trace of Precipitation, MM = Missing Value Source: NWS Daily Summary

Daily Weather History Graph

Daily Weather History Graph

Search for Another Location

Airport or City:

Trip Planner

Search our weather history database for the weather conditions in past years. The results will help you decide how hot, cold, wet, or windy it might be!

Date:

Astronomy

Jan. 03, 2014 Rise Set
Actual Time 8:03 AM CST 4:35 PM CST
Civil Twilight 7:27 AM CST 5:11 PM CST
Nautical Twilight 6:48 AM CST 5:50 PM CST
Astronomical Twilight 6:10 AM CST 6:27 PM CST
Moon 9:16 AM CST (1/3) 8:00 PM CST (1/3)
Length of Visible Light 9h 43m
Length of Day
8h 31m
Waxing Crescent, 8% of the Moon is Illuminated
Jan 3
Waxing Crescent
Jan 7
First Quarter
Jan 15
Full
Jan 23
Last Quarter
Jan 30
New

Hourly Weather History & Observations

Time (CST) Temp. Windchill Dew Point Humidity Pressure Visibility Wind Dir Wind Speed Gust Speed Precip Events Conditions
12:13 AM -14.8 °F -32.2 °F -20.2 °F 77% 30.13 in 10.0 mi South 8.1 mph - N/A   Clear
12:33 AM -11.2 °F -29.0 °F -18.4 °F 70% 30.12 in 10.0 mi South 9.2 mph - N/A   Clear
12:53 AM -9.4 °F -24.3 °F -16.6 °F 71% 30.11 in 10.0 mi South 6.9 mph - N/A   Clear
1:13 AM -7.6 °F -23.4 °F -16.6 °F 65% 30.11 in 10.0 mi South 8.1 mph - N/A   Clear
1:33 AM -7.6 °F -24.6 °F -14.8 °F 71% 30.10 in 10.0 mi South 9.2 mph - N/A   Clear
1:53 AM -5.8 °F -23.4 °F -14.8 °F 65% 30.09 in 10.0 mi South 10.4 mph - N/A   Clear
2:13 AM -5.8 °F -24.4 °F -14.8 °F 65% 30.06 in 10.0 mi South 11.5 mph - N/A   Clear
2:33 AM -5.8 °F -25.2 °F -13.0 °F 71% 30.05 in 10.0 mi South 12.7 mph 19.6 mph N/A   Clear
2:53 AM -4.0 °F -22.1 °F -13.0 °F 65% 30.04 in 10.0 mi South 11.5 mph - N/A   Scattered Clouds
3:13 AM -2.2 °F -19.9 °F -11.2 °F 66% 30.03 in 10.0 mi South 11.5 mph 18.4 mph N/A   Mostly Cloudy
3:33 AM -2.2 °F -22.9 °F -11.2 °F 66% 30.01 in 10.0 mi South 16.1 mph 21.9 mph N/A   Mostly Cloudy
3:53 AM -2.2 °F -20.7 °F -11.2 °F 66% 29.98 in 10.0 mi South 12.7 mph - N/A   Mostly Cloudy
4:13 AM -4.0 °F -19.0 °F -11.2 °F 71% 29.97 in 10.0 mi SSE 8.1 mph - N/A   Overcast
4:33 AM -4.0 °F -19.0 °F -11.2 °F 71% 29.95 in 10.0 mi SSE 8.1 mph - N/A   Mostly Cloudy
4:53 AM -2.2 °F -15.6 °F -11.2 °F 66% 29.92 in 10.0 mi SSE 6.9 mph - N/A   Overcast
5:13 AM -2.2 °F -18.9 °F -11.2 °F 66% 29.90 in 10.0 mi SSE 10.4 mph 16.1 mph N/A   Overcast
5:33 AM -2.2 °F -19.9 °F -11.2 °F 66% 29.89 in 5.0 mi SSE 11.5 mph - N/A Snow Light Snow
5:53 AM -2.2 °F -19.9 °F -9.4 °F 71% 29.86 in 4.0 mi South 11.5 mph - N/A Snow Light Snow
6:13 AM -0.4 °F -19.2 °F -9.4 °F 66% 29.83 in 5.0 mi SSE 13.8 mph 25.3 mph N/A Snow Light Snow
6:33 AM -0.4 °F -19.9 °F -9.4 °F 66% 29.82 in 2.5 mi South 15.0 mph 21.9 mph N/A Snow Light Snow
6:53 AM -0.4 °F -18.4 °F -7.6 °F 72% 29.80 in 4.0 mi SSE 12.7 mph 18.4 mph N/A Snow Light Snow
7:13 AM -0.4 °F -20.5 °F -7.6 °F 72% 29.78 in 5.0 mi SSE 16.1 mph 19.6 mph N/A Snow Light Snow
7:33 AM -0.4 °F -21.2 °F -7.6 °F 72% 29.75 in 10.0 mi South 17.3 mph 23.0 mph N/A Snow Light Snow
7:53 AM -0.4 °F -19.9 °F -7.6 °F 72% 29.71 in 1.8 mi SSE 15.0 mph 25.3 mph N/A Snow Light Snow
8:13 AM 1.4 °F -19.4 °F -5.8 °F 72% 29.69 in 1.5 mi South 18.4 mph 23.0 mph N/A Snow Light Snow
8:33 AM 1.4 °F -18.8 °F -5.8 °F 72% 29.67 in 2.0 mi SSE 17.3 mph 24.2 mph N/A Snow Light Snow
8:53 AM 1.4 °F -18.8 °F -5.8 °F 72% 29.65 in 2.0 mi South 17.3 mph 24.2 mph N/A Snow Light Snow
9:13 AM 1.4 °F -18.2 °F -5.8 °F 72% 29.65 in 1.5 mi South 16.1 mph 27.6 mph N/A Snow Light Snow
9:33 AM 1.4 °F -18.2 °F -5.8 °F 72% 29.63 in 1.5 mi South 16.1 mph 23.0 mph N/A Snow Light Snow
9:53 AM 3.2 °F -16.5 °F -4.0 °F 72% 29.61 in 2.5 mi South 17.3 mph 21.9 mph N/A Snow Light Snow
10:13 AM 3.2 °F -17.1 °F -4.0 °F 72% 29.61 in 2.0 mi South 18.4 mph 25.3 mph N/A Snow Light Snow
10:33 AM 3.2 °F -15.3 °F -2.2 °F 78% 29.59 in 1.8 mi South 15.0 mph 28.8 mph N/A Snow Light Snow
10:53 AM 3.2 °F -14.6 °F -2.2 °F 78% 29.59 in 4.0 mi South 13.8 mph 21.9 mph N/A Snow Light Snow
11:14 AM 5.0 °F -12.3 °F -2.2 °F 72% 29.56 in 1.8 mi South 13.8 mph 24.2 mph N/A Snow Light Snow
11:33 AM 5.0 °F -14.7 °F -2.2 °F 72% 29.55 in 0.8 mi South 18.4 mph 25.3 mph N/A Snow Light Snow
11:53 AM 5.0 °F -15.7 °F -0.4 °F 78% 29.52 in 0.8 mi South 20.7 mph 25.3 mph N/A Snow Light Snow
12:13 PM 5.0 °F -15.7 °F -0.4 °F 78% 29.49 in 0.8 mi South 20.7 mph 26.5 mph N/A Snow Light Snow
12:33 PM 6.8 °F -11.8 °F -0.4 °F 72% 29.48 in 0.5 mi South 17.3 mph 31.1 mph N/A Snow Light Snow
12:53 PM 6.8 °F -11.3 °F 1.4 °F 79% 29.47 in 0.5 mi South 16.1 mph 21.9 mph N/A Snow Snow
1:08 PM 6.8 °F -11.3 °F 1.4 °F 79% 29.45 in 0.5 mi South 16.1 mph 26.5 mph N/A Snow Light Snow
1:15 PM 6.8 °F - 1.4 °F 79% 29.43 in 0.8 mi North - - N/A Snow Light Snow
1:33 PM 6.8 °F -11.8 °F 1.4 °F 79% 29.43 in 0.5 mi South 17.3 mph 25.3 mph N/A Snow Snow
1:53 PM 6.8 °F -10.7 °F 1.4 °F 79% 29.40 in 0.5 mi South 15.0 mph 20.7 mph N/A Snow Light Snow
2:13 PM 8.6 °F -7.7 °F 1.4 °F 73% 29.39 in 0.8 mi South 13.8 mph 21.9 mph 0.01 in Snow Light Snow
2:33 PM 8.6 °F -8.3 °F 3.2 °F 79% 29.37 in 1.5 mi South 15.0 mph 23.0 mph 0.02 in Snow Light Snow
2:53 PM 8.6 °F -8.3 °F 3.2 °F 79% 29.36 in 0.8 mi South 15.0 mph 23.0 mph N/A Snow Light Snow
3:13 PM 10.4 °F -4.1 °F 3.2 °F 73% 29.36 in 1.8 mi South 11.5 mph 19.6 mph 0.01 in Snow Light Snow
3:33 PM 10.4 °F -5.4 °F 5.0 °F 79% 29.36 in 1.2 mi South 13.8 mph 19.6 mph 0.02 in Snow Light Snow
3:53 PM 10.4 °F -4.8 °F 6.8 °F 85% 29.35 in 1.2 mi South 12.7 mph 18.4 mph 0.01 in Snow Light Snow
4:13 PM 10.4 °F -4.1 °F 6.8 °F 85% 29.34 in 0.5 mi South 11.5 mph 16.1 mph 0.02 in Snow Snow
4:33 PM 10.4 °F -2.4 °F 6.8 °F 85% 29.33 in 1.0 mi South 9.2 mph - 0.03 in Snow Snow
4:53 PM 12.2 °F -1.8 °F 6.8 °F 79% 29.32 in 1.0 mi South 11.5 mph - N/A Snow Snow
5:13 PM 12.2 °F -1.0 °F 8.6 °F 85% 29.32 in 1.2 mi South 10.4 mph - 0.01 in Snow Snow
5:33 PM 12.2 °F -1.8 °F 8.6 °F 85% 29.32 in 1.2 mi South 11.5 mph 17.3 mph 0.03 in Snow Light Snow
5:53 PM 12.2 °F -0.2 °F 8.6 °F 85% 29.33 in 1.0 mi SSW 9.2 mph 17.3 mph N/A Snow Snow
6:13 PM 14.0 °F 2.9 °F 10.4 °F 86% 29.32 in 1.0 mi South 8.1 mph 16.1 mph N/A Snow Snow
6:33 PM 14.0 °F 2.9 °F 10.4 °F 86% 29.33 in 1.8 mi South 8.1 mph - N/A Snow Light Snow
6:53 PM 14.0 °F 2.9 °F 10.4 °F 86% 29.32 in 5.0 mi South 8.1 mph - N/A Snow Light Snow
7:13 PM 14.0 °F 1.2 °F 10.4 °F 86% 29.31 in 1.5 mi South 10.4 mph - N/A Snow Light Snow
7:33 PM 15.8 °F 6.1 °F 10.4 °F 79% 29.31 in 2.5 mi South 6.9 mph - N/A Snow Light Snow
7:53 PM 15.8 °F 10.2 °F 10.4 °F 79% 29.32 in 5.0 mi South 3.5 mph - N/A Snow Light Snow
8:13 PM 15.8 °F 8.6 °F 10.4 °F 79% 29.32 in 2.0 mi South 4.6 mph - N/A Snow Light Snow
8:33 PM 15.8 °F 10.2 °F 12.2 °F 86% 29.31 in 2.5 mi South 3.5 mph - N/A   Overcast
8:53 PM 15.8 °F 10.2 °F 12.2 °F 86% 29.31 in 2.0 mi South 3.5 mph - N/A Snow Light Snow
9:13 PM 15.8 °F - 12.2 °F 86% 29.33 in 2.0 mi Calm Calm - 0.01 in Snow Light Snow
9:33 PM 15.8 °F - 14.0 °F 93% 29.33 in 2.0 mi Calm Calm - 0.01 in Snow Light Snow
9:53 PM 15.8 °F - 14.0 °F 93% 29.33 in 2.5 mi Calm Calm - N/A   Overcast
10:13 PM 15.8 °F - 12.2 °F 86% 29.34 in 3.0 mi Calm Calm - 0.01 in Snow Light Snow
10:33 PM 15.8 °F - 12.2 °F 86% 29.34 in 1.5 mi Calm Calm - 0.01 in Snow Light Snow
10:53 PM 15.8 °F - 12.2 °F 86% 29.34 in 1.2 mi Calm Calm - N/A Snow Light Snow
11:13 PM 15.8 °F - 12.2 °F 86% 29.35 in 3.0 mi Calm Calm - N/A Snow Light Snow
11:33 PM 15.8 °F - 12.2 °F 86% 29.35 in 2.0 mi Calm Calm - 0.01 in Snow Light Snow
11:53 PM 15.8 °F - 12.2 °F 86% 29.36 in 5.0 mi Calm Calm - N/A Snow Light Snow